Date String (YYYY-MM-DD hh:mm:ss) UTC,Instrument flags,Ambient pressure (hPa),Sample flow (lpm),Bypass flow (lpm),Sample temperature (°C),Ambient temperature (°C),ASC tube jacket temperature (°C),LED temperature (°C),Box temperature (°C),Sample RH (%),Span deviation,Mass concentration (μg/m³),Mass concentration (μg/m³),Mass concentration (μg/m³)
DateTimeUTC,F1_M11,P_M11,Q1_M11,Q2_M11,T1_M11,T2_M11,T3_M11,T4_M11,T5_M11,U1_M11,ZSPAN_M11,X0_M11,X2_M11,X1_M11
2022-05-26 20:00:00,,0826.3,5.00,0.00,29.3,28.4,00.0,38.1,31.2,14.0,0000.0,0011.05,0003.81,0002.97
2022-05-26 20:01:00,,0826.3,5.01,0.00,29.3,28.5,00.0,38.1,31.3,13.4,0000.0,0010.98,0003.83,0002.97
2022-05-26 20:02:00,,0826.3,5.00,0.00,29.3,28.5,00.0,38.1,31.3,13.2,0000.0,0010.70,0003.79,0002.95
2022-05-26 20:03:00,,0826.3,5.00,0.00,29.4,28.6,00.0,38.1,31.4,12.9,0000.0,0010.74,0003.80,0002.95
2022-05-26 20:04:00,,0826.2,4.99,0.00,29.4,28.5,00.0,38.1,31.3,12.7,0000.0,0010.26,0003.83,0002.94
2022-05-26 20:05:00,,0826.2,5.01,0.00,29.4,27.6,00.0,38.1,31.1,13.0,0000.0,0010.16,0003.82,0002.91
2022-05-26 20:06:00,,0826.2,5.00,0.00,29.2,26.9,00.0,38.0,30.9,13.9,0000.0,0010.15,0003.81,0002.90
2022-05-26 20:07:00,,0826.2,4.99,0.00,29.2,26.8,00.0,38.0,30.8,13.4,0000.0,0009.91,0003.76,0002.89
2022-05-26 20:08:00,,0826.2,5.01,0.00,29.1,26.8,00.0,38.0,30.8,13.4,0000.0,0009.04,0003.72,0002.89
2022-05-26 20:09:00,,0826.2,5.00,0.00,29.1,27.0,00.0,38.0,30.8,13.5,0000.0,0008.63,0003.69,0002.89
2022-05-26 20:10:00,,0826.2,4.99,0.00,29.1,27.2,00.0,38.0,30.9,14.5,0000.0,0007.71,0003.65,0002.87
2022-05-26 20:11:00,,0826.3,5.01,0.00,29.1,27.4,00.0,37.9,30.9,13.6,0000.0,0008.40,0003.63,0002.84
2022-05-26 20:12:00,,0826.2,5.00,0.00,29.1,27.6,00.0,38.0,31.0,13.4,0000.0,0008.35,0003.59,0002.83
2022-05-26 20:13:00,,0826.2,5.01,0.00,29.1,27.8,00.0,38.0,31.0,13.1,0000.0,0008.30,0003.57,0002.82
2022-05-26 20:14:00,,0826.2,5.00,0.00,29.1,27.9,00.0,38.0,31.0,14.4,0000.0,0008.57,0003.58,0002.81
2022-05-26 20:15:00,,0826.3,4.99,0.00,29.2,28.1,00.0,38.0,31.1,14.2,0000.0,0008.46,0003.56,0002.80
2022-05-26 20:16:00,,0826.2,4.99,0.00,29.2,28.2,00.0,38.0,31.1,14.4,0000.0,0008.29,0003.51,0002.81
2022-05-26 20:17:00,,0826.2,5.00,0.00,29.2,28.3,00.0,38.0,31.2,12.9,0000.0,0008.16,0003.48,0002.80
2022-05-26 20:18:00,,0826.2,5.01,0.00,29.3,28.4,00.0,38.0,31.2,12.9,0000.0,0008.23,0003.50,0002.81
2022-05-26 20:19:00,,0826.3,5.01,0.00,29.3,28.5,00.0,38.1,31.3,13.1,0000.0,0008.25,0003.52,0002.82
2022-05-26 20:20:00,,0826.2,4.99,0.00,29.3,28.6,00.0,38.1,31.3,13.4,0000.0,0008.37,0003.54,0002.83
2022-05-26 20:21:00,,0826.2,5.00,0.00,29.4,28.6,00.0,38.1,31.4,13.8,0000.0,0008.69,0003.58,0002.86
2022-05-26 20:22:00,,0826.2,5.01,0.00,29.4,28.7,00.0,38.1,31.4,14.0,0000.0,0008.06,0003.59,0002.87
2022-05-26 20:23:00,,0826.2,5.00,0.00,29.5,28.7,00.0,38.2,31.4,14.2,0000.0,0008.25,0003.62,0002.90
2022-05-26 20:24:00,,0826.2,5.00,0.00,29.4,28.0,00.0,38.1,31.2,13.0,0000.0,0008.39,0003.65,0002.92
2022-05-26 20:25:00,,0826.2,4.99,0.00,29.4,27.6,00.0,38.1,31.1,13.4,0000.0,0007.98,0003.63,0002.94
2022-05-26 20:26:00,,0826.2,5.00,0.00,29.3,27.5,00.0,38.1,31.1,13.6,0000.0,0008.23,0003.66,0002.96
2022-05-26 20:27:00,,0826.2,5.01,0.00,29.3,27.6,00.0,38.1,31.1,13.1,0000.0,0008.93,0003.71,0002.98
2022-05-26 20:28:00,,0826.2,4.99,0.00,29.3,27.7,00.0,38.1,31.1,12.6,0000.0,0009.48,0003.73,0003.01
2022-05-26 20:29:00,,0826.2,5.00,0.00,29.3,27.9,00.0,38.1,31.2,12.7,0000.0,0009.38,0003.72,0003.00
2022-05-26 20:30:00,,0826.2,5.01,0.00,29.3,28.0,00.0,38.1,31.2,12.8,0000.0,0010.38,0003.73,0003.00
2022-05-26 20:31:00,,0826.2,5.00,0.00,29.3,28.2,00.0,38.1,31.3,14.2,0000.0,0010.88,0003.71,0002.99
2022-05-26 20:32:00,,0826.2,5.00,0.00,29.4,28.3,00.0,38.2,31.3,13.7,0000.0,0010.94,0003.70,0002.97
2022-05-26 20:33:00,,0826.2,5.00,0.00,29.4,28.4,00.0,38.2,31.3,14.3,0000.0,0011.23,0003.69,0002.97
2022-05-26 20:34:00,,0826.2,5.01,0.00,29.4,28.5,00.0,38.2,31.4,12.8,0000.0,0011.16,0003.68,0002.98
2022-05-26 20:35:00,,0826.3,5.01,0.00,29.5,28.6,00.0,38.2,31.4,14.1,0000.0,0011.00,0003.67,0002.97
2022-05-26 20:36:00,,0826.2,4.99,0.00,29.5,28.1,00.0,38.2,31.3,14.5,0000.0,0010.87,0003.70,0002.96
2022-05-26 20:37:00,,0826.2,4.99,0.00,29.4,27.1,00.0,38.1,31.0,13.7,0000.0,0011.27,0003.70,0002.96
2022-05-26 20:38:00,,0826.2,5.00,0.00,29.3,26.8,00.0,38.1,30.9,13.0,0000.0,0010.85,0003.66,0002.94
2022-05-26 20:39:00,,0826.2,5.01,0.00,29.2,26.9,00.0,38.1,30.9,12.7,0000.0,0010.56,0003.64,0002.92
2022-05-26 20:40:00,,0826.2,5.00,0.00,29.2,27.0,00.0,38.1,30.9,12.7,0000.0,0010.41,0003.63,0002.92
2022-05-26 20:41:00,,0826.2,4.98,0.00,29.2,27.2,00.0,38.0,30.9,13.0,0000.0,0009.82,0003.60,0002.90
2022-05-26 20:42:00,,0826.2,5.01,0.00,29.2,27.4,00.0,38.0,31.0,13.7,0000.0,0009.05,0003.60,0002.89
2022-05-26 20:43:00,,0826.2,5.00,0.00,29.2,27.6,00.0,38.0,31.0,13.5,0000.0,0008.94,0003.59,0002.89
2022-05-26 20:44:00,,0826.1,5.00,0.00,29.2,27.8,00.0,38.0,31.1,13.9,0000.0,0008.74,0003.58,0002.88
2022-05-26 20:45:00,,0826.1,4.99,0.00,29.2,28.0,00.0,38.1,31.1,14.6,0000.0,0008.89,0003.61,0002.88
2022-05-26 20:46:00,,0826.1,5.00,0.00,29.3,28.1,00.0,38.1,31.2,14.1,0000.0,0008.85,0003.59,0002.87
2022-05-26 20:47:00,,0826.2,5.00,0.00,29.3,28.3,00.0,38.1,31.2,13.4,0000.0,0009.01,0003.59,0002.87
2022-05-26 20:48:00,,0826.2,5.01,0.00,29.3,28.4,00.0,38.1,31.3,13.1,0000.0,0008.67,0003.57,0002.86
2022-05-26 20:49:00,,0826.1,5.01,0.00,29.4,28.5,00.0,38.1,31.3,13.3,0000.0,0009.08,0003.57,0002.85
2022-05-26 20:50:00,,0826.2,5.01,0.00,29.4,28.6,00.0,38.2,31.4,14.4,0000.0,0009.02,0003.55,0002.84
2022-05-26 20:51:00,,0826.2,4.99,0.00,29.4,28.6,00.0,38.2,31.4,13.6,0000.0,0009.48,0003.54,0002.83
2022-05-26 20:52:00,,0826.1,5.01,0.00,29.4,28.1,00.0,38.1,31.3,12.9,0000.0,0009.61,0003.54,0002.83
2022-05-26 20:53:00,,0826.1,5.01,0.00,29.4,27.6,00.0,38.1,31.1,13.1,0000.0,0009.97,0003.58,0002.84
2022-05-26 20:54:00,,0826.1,4.99,0.00,29.3,27.5,00.0,38.1,31.1,13.9,0000.0,0009.58,0003.60,0002.84
2022-05-26 20:55:00,,0826.1,5.00,0.00,29.3,27.6,00.0,38.1,31.1,14.0,0000.0,0009.93,0003.61,0002.83
2022-05-26 20:56:00,,0826.1,5.00,0.00,29.3,27.7,00.0,38.1,31.1,14.7,0000.0,0009.49,0003.57,0002.81
2022-05-26 20:57:00,,0826.1,5.00,0.00,29.3,27.8,00.0,38.1,31.2,13.8,0000.0,0009.54,0003.57,0002.81
2022-05-26 20:58:00,,0826.1,4.99,0.00,29.3,28.0,00.0,38.1,31.2,14.0,0000.0,0010.61,0003.56,0002.80
2022-05-26 20:59:00,,0826.1,5.00,0.00,29.3,28.1,00.0,38.1,31.3,14.8,0000.0,0011.03,0003.60,0002.80
